Tracking 19903 objects as of 16-Oct-2019
HD Live streaming from Space Station
objects crossing your sky now

SL-8 R/B

Track SL-8 R/B now!
10-day predictions


NORAD ID: 17160
Int'l Code: 1986-093B
Perigee: 962.3 km
Apogee: 1,018.0 km
Inclination: 82.9 °
Period: 104.8 minutes
Semi major axis: 7361 km
RCS: 4.5547 m2 (large)
Launch date: November 24, 1986
Source: Commonwealth of Independent States (former USSR) (CIS)
Launch site: PLESETSK MISSILE AND SPACE COMPLEX (PKMTR)

Note: This is a ROCKET BODY
aabbcc
Your satellite tracking list
Your tracking list is empty




NASA's NSSDC Master Catalog

Two Line Element Set (TLE):
1 17160U 86093B   19289.20327946  .00000044  00000-0  30784-4 0  9997
2 17160  82.9275 152.9864 0037879 298.2570 201.5640 13.74626293649787
Source of the keplerian elements: AFSPC